Regional Weather Roundup
Issued by NWS

Home | Current Version | Previous Version | Text Only | Print | Product List | Glossary On
Versions: 1 2 3 4 5 6 7 8 9 10 11 12 13 14 15 16 17 18 19 20 21 22 23 24 25 26 27 28 29 30 31 32 33 34 35 36 37 38 39 40 41 42 43 44 45 46 47 48 49 50
000
ASUS43 KLSX 211507
RWRMO

WEATHER SUMMARY FOR MISSOURI
NATIONAL WEATHER SERVICE SPRINGFIELD MO
1000 AM CDT MON AUG 21 2017

NOTE: "FAIR" INDICATES FEW OR NO CLOUDS BELOW 12,000 FEET WITH NO
       SIGNIFICANT WEATHER AND/OR OBSTRUCTIONS TO VISIBILITY.
       CURRENT SKY AND/OR WEATHER CONDITIONS ARE NOT AVAILABLE FOR
       CHILLICOTHE AND FARMINGTON.

MOZ001>031-035>038-043-044-053-054-211600-
...NORTHERN AND WESTERN MISSOURI...

CITY           SKY/WX    TMP DP  RH WIND       PRES   REMARKS
KANSAS CTY INT CLOUDY    83  74  74 S14       30.06R
KANSAS C DTWN  CLOUDY    76  67  73 SE25G37   30.08R THUNDER
LEE`S SUMMIT   TSTM      70  68  93 W9        30.11R
ST JOSEPH      CLOUDY    79  74  84 E8        30.05F
CHILLICOTHE      N/A     78  71  79 E6        30.09S
KIRKSVILLE     LGT RAIN  71  70  96 NE7       30.12R

$$
MOZ066>068-077>081-088>096-101>105-211600-
...SOUTHWEST MISSOURI...

CITY           SKY/WX    TMP DP  RH WIND       PRES   REMARKS
SPRINGFIELD    SUNNY     82  75  79 S9        30.14F
JOPLIN         SUNNY     85  74  69 S12       30.11S HX  92
BRANSON        MOSUNNY   84  72  65 S7        30.17S

$$
MOZ032>034-039>042-045>050-055>058-069>072-211600-
...CENTRAL MISSOURI...

CITY           SKY/WX    TMP DP  RH WIND       PRES   REMARKS
COLUMBIA       SUNNY     83  74  74 SW8       30.10F
JEFFERSON CITY CLOUDY    81  75  82 SW5       30.09F
ROLLA          SUNNY     83  75  77 SW9       30.14F HX  90
SEDALIA        MOSUNNY   85  76  74 SW12      30.09F HX  94
WHITEMAN AFB   PTSUNNY   80  80 100 SW10      30.07S
WARRENSBURG    CLOUDY    77  70  78 S8        30.08S
OSAGE BEACH    SUNNY     85  75  72 SW9       30.11F HX  93

$$
MOZ051-052-059>065-211600-
...EAST CENTRAL MISSOURI...

CITY           SKY/WX    TMP DP  RH WIND       PRES   REMARKS
ST LOUIS INTL  MOSUNNY   87  75  67 W14       30.10F HX  96
SPIRIT OF STL  SUNNY     87  76  69 W10       30.08F HX  97
ST CHARLES     SUNNY     84  75  74 W3        30.08F HX  92

$$
MOZ072>076-082>087-097>100-106>115-211600-
...SOUTH CENTRAL AND SOUTHEAST MISSOURI...

CITY           SKY/WX    TMP DP  RH WIND       PRES   REMARKS
CAPE GIRARDEAU SUNNY     84  76  76 VRB3      30.13S HX  93
FARMINGTON     MOSUNNY   85  76  74 SW5       30.15S HX  94
POPLAR BLUFF   SUNNY     83  77  82 S3        30.13S HX  92
WEST PLAINS    MOSUNNY   82  74  76 CALM      30.18S

$$



USA.gov is the U.S. government's official web portal to all federal, state and local government web resources and services.